Вернуться в каталог

OPS 4682 DEB

АктивенPO
NORAD 14716·DEBRIS·🇺🇸 United States

Запущен Apr 3, 1965 с Vandenberg Space Force Base

Loading…

Ближайшие Пролёты (ближайшие 24 часа)

TLE

СвежийSource: Space-Track

Эпоха: Sep 13, 2026, 15:05 UTC

1 14716U 65027P   26256.62902648  .00000902  00000-0  29815-2 0  9995
2 14716  90.2575  16.2302 0030175  82.5305 290.7103 12.99693798450961

Отслеживайте OPS 4682 DEB в реальном времени с AllMySat

Download on the App Store